Location: Austin
(30.3000°N, 97.7500°W)
Time: 05:50:52
(UTC-06:00)

Cosmos 2151 - Pass Details

Date: 03 March 2026
Orbit: 557 x 576 km, 82.5° (Epoch: 6 March)

Event Time Altitude Azimuth Distance (km) Brightness Sun altitude
Rises 19:57:22 0° 189° (S) 2,740 6.4 -19.3°
Reaches altitude 10° 19:59:33 10° 191° (S) 1,845 5.6 -19.8°
Maximum altitude 20:03:36 74° 276° (W) 585 3.0 -20.7°
Drops below altitude 10° 20:07:40 10° 2° (N) 1,847 5.5 -21.6°
Sets 20:09:50 0° 4° (N) 2,744 6.4 -22.0°
